Theta_e
330 329 325 323 324 323 320 319 304 309 306 296 295 298 294 304 304 302 301 304 300 304 306 307 305 306 303 302 302 304 304 302 303 298 299 315 332 336 338 338 340 341 344 348 350 350 351 351 353 353 353 352 353 353 353 353 352 352 351 351 350 350 350 349 349 349 349 349 348 348 348 348 348 348 348 348 349 349 349 348 348 347 346 346 346 346 344 343 343 343 341 339 337 335 335 336 338
323 322 324 324 324 324 316 316 306 300 302 295 295 297 298 302 303 300 300 301 302 304 306 305 305 305 307 307 305 306 305 308 310 311 320 327 330 331 335 337 341 341 344 348 349 350 351 351 350 352 353 353 352 352 352 352 352 351 351 350 350 349 349 349 348 348 348 348 348 348 348 348 348 347 347 347 347 347 348 348 347 346 347 346 346 345 344 344 343 342 341 339 336 334 333 335 337
321 322 324 322 321 320 316 314 301 298 296 290 293 296 300 299 299 301 302 303 304 306 307 306 306 306 306 305 303 303 299 312 313 317 318 328 322 327 335 340 337 342 343 347 347 348 349 350 348 352 353 353 353 353 352 352 352 351 351 350 349 349 349 349 348 348 348 348 348 348 347 348 347 347 347 346 346 346 347 348 347 346 346 346 346 345 345 344 343 341 339 338 337 333 332 334 337
327 328 324 321 317 320 311 307 302 298 295 292 292 301 300 299 300 301 303 305 305 305 306 307 305 307 305 302 304 307 305 311 319 319 319 325 325 332 335 335 335 340 344 345 345 347 351 348 348 352 352 352 353 352 352 352 352 351 350 350 349 349 348 348 348 348 348 347 347 347 347 347 347 347 347 346 347 347 346 347 346 346 346 346 344 345 344 343 342 339 339 337 336 333 332 334 336
325 329 328 320 319 313 310 306 299 298 292 295 292 299 299 300 301 302 303 304 304 304 304 305 303 306 307 305 307 302 303 311 321 325 326 329 333 335 336 337 338 340 342 343 345 346 350 347 349 349 351 352 352 351 351 350 350 350 350 349 349 349 348 348 347 347 347 347 347 347 347 347 347 347 347 346 345 346 346 347 346 345 344 344 345 345 345 344 341 339 338 337 335 333 331 333 335
328 324 331 324 313 317 309 298 299 295 298 300 295 296 299 301 301 302 303 303 303 302 304 304 302 304 303 307 311 306 316 305 317 324 326 329 334 338 339 340 336 336 341 342 346 351 350 344 349 350 352 350 351 352 352 351 351 350 349 349 348 348 348 347 347 347 346 347 347 347 347 347 346 346 346 345 345 346 346 346 345 344 344 343 344 344 344 343 341 339 338 335 334 332 330 331 334
322 319 321 322 317 315 306 299 295 295 297 300 297 298 300 300 302 302 301 301 304 303 305 304 305 303 302 308 310 317 322 322 320 325 330 332 335 336 337 337 335 338 341 343 351 351 349 345 350 352 351 350 349 350 351 351 351 350 349 349 349 348 348 348 347 346 345 346 347 346 346 347 347 346 346 346 346 346 346 345 344 344 343 343 343 343 344 343 341 339 336 334 333 332 329 330 333
327 319 320 311 308 304 301 298 297 297 297 301 301 300 301 302 304 304 302 303 300 300 302 305 305 302 301 308 302 311 320 324 326 331 332 332 334 335 337 338 334 336 340 348 349 346 345 344 350 350 350 349 349 349 349 350 349 348 348 349 349 349 348 348 348 346 345 346 345 346 346 346 347 346 345 345 345 345 345 344 344 344 343 342 342 342 343 342 340 338 335 334 333 331 328 328 332
324 318 321 312 304 305 299 296 296 299 299 301 301 304 308 305 304 303 300 301 301 302 302 303 303 300 301 305 303 309 313 322 327 330 331 333 333 334 336 336 337 338 341 344 347 348 345 340 345 350 349 350 350 349 349 349 349 348 347 347 349 348 348 348 348 347 346 345 345 345 345 345 347 346 345 344 344 343 344 343 343 343 342 342 341 342 340 339 337 336 335 333 331 330 328 327 329
316 315 307 308 307 299 298 296 294 297 298 301 300 301 302 303 303 303 301 301 301 302 303 305 302 300 305 302 303 306 309 318 324 327 330 332 334 335 335 335 336 338 339 340 344 348 344 339 337 341 346 349 349 349 349 347 348 348 348 348 347 348 348 348 348 347 347 345 345 346 346 346 346 346 345 344 344 343 342 341 343 342 341 341 341 340 338 336 336 336 334 333 331 330 328 326 328
310 316 316 306 300 297 298 295 296 299 299 302 301 304 303 303 304 302 302 301 305 302 303 304 303 300 304 302 302 309 311 314 318 322 327 331 332 333 334 335 335 336 337 338 338 345 344 342 335 335 341 344 348 348 349 347 348 345 347 344 347 346 348 348 347 347 347 346 346 346 346 346 346 344 345 344 344 343 342 342 341 341 341 341 341 339 337 336 335 335 334 332 331 329 328 326 327
307 306 311 301 298 299 297 296 298 298 299 299 299 303 303 303 305 302 302 300 302 302 302 304 301 303 302 302 302 304 307 307 311 319 327 330 329 332 334 333 334 334 335 335 336 338 342 343 343 337 334 337 341 345 346 347 347 347 347 347 347 347 347 347 348 347 347 347 346 345 345 345 345 345 344 344 343 343 342 341 341 341 339 341 341 338 337 336 335 334 333 332 330 329 327 325 326
309 309 302 298 298 297 298 297 297 297 297 298 299 302 304 303 302 303 302 302 303 302 301 304 305 306 299 302 303 307 305 306 308 315 325 324 327 330 332 332 333 334 336 335 335 336 337 339 343 343 337 332 332 336 341 342 345 347 346 346 346 346 348 348 347 347 346 347 347 347 346 346 344 344 345 343 343 342 342 341 340 341 340 341 340 338 337 336 335 333 332 331 330 328 326 324 324
314 310 305 300 302 298 299 297 297 295 296 299 301 302 304 303 303 303 302 301 301 301 305 306 306 302 301 302 303 302 303 306 307 314 318 325 327 328 329 329 330 331 332 334 333 333 335 336 339 342 341 341 342 334 333 339 342 345 346 346 345 344 347 348 348 348 347 347 346 345 344 344 345 345 344 343 343 342 341 341 341 340 339 339 338 337 336 335 333 333 332 331 329 327 324 322 322
313 308 305 302 297 296 298 296 297 296 295 299 301 302 302 304 304 304 302 300 301 304 305 306 306 304 297 301 301 304 303 306 308 315 319 325 322 324 325 325 322 321 322 329 329 330 331 334 335 337 339 343 343 343 343 337 334 339 342 340 341 344 344 345 346 344 343 344 343 341 339 338 337 338 339 340 340 338 336 335 340 341 339 338 337 337 336 335 333 332 331 330 329 325 322 320 320
313 307 306 300 295 294 299 299 299 296 295 300 301 302 301 303 305 303 303 304 304 309 306 301 306 301 303 302 302 303 305 308 310 315 316 322 321 321 321 319 318 318 317 318 319 323 328 331 331 332 336 338 340 341 342 344 332 332 336 337 337 340 341 341 340 338 335 334 334 333 329 327 326 330 327 333 333 337 335 334 335 338 339 338 337 337 336 334 334 333 331 330 328 324 320 319 318
313 312 298 296 294 293 298 298 297 294 298 300 302 301 300 300 304 304 306 307 303 302 303 303 303 305 301 302 304 305 306 310 312 315 317 315 317 312 312 312 314 315 318 316 316 317 319 324 329 331 331 336 338 339 341 345 338 329 329 329 332 335 336 337 337 329 324 322 325 322 322 337 337 335 332 335 326 333 325 327 332 337 339 338 337 336 336 335 334 333 331 329 327 322 320 319 319
312 303 299 295 295 294 299 299 299 301 299 299 301 303 302 299 303 304 306 304 303 303 302 303 304 303 304 304 306 308 310 308 309 309 310 309 309 308 308 309 310 312 313 314 316 316 317 318 320 327 330 330 334 339 341 344 339 336 341 337 338 334 331 330 333 338 335 337 324 326 336 339 338 339 338 333 334 331 326 324 330 336 339 336 337 337 336 335 334 333 331 329 328 323 318 309 309
310 301 298 295 298 300 302 302 302 301 300 302 302 302 302 301 303 304 301 301 301 301 301 302 301 302 303 304 305 305 306 307 308 309 308 308 307 307 307 309 309 310 311 312 314 315 317 317 319 319 322 329 331 335 339 338 341 342 342 342 341 334 336 336 339 339 341 339 339 339 335 336 336 336 339 336 337 328 329 323 329 333 335 333 335 337 336 335 334 333 331 329 328 327 315 315 310
309 301 298 297 303 301 303 304 302 303 303 302 302 302 301 302 304 304 301 299 301 300 299 300 301 301 301 302 304 305 306 306 307 308 307 308 308 307 307 308 308 309 310 312 313 317 317 316 317 319 319 324 329 334 336 335 336 340 339 341 341 341 341 339 340 339 337 340 340 338 337 336 337 334 327 327 332 334 327 322 324 328 330 329 330 332 333 334 334 334 331 330 326 321 319 317 314
307 303 297 300 300 299 301 303 303 303 303 302 302 302 301 302 303 304 301 298 300 299 301 301 301 301 301 302 303 304 304 305 306 306 307 307 307 308 306 307 307 309 310 312 313 315 316 316 316 317 319 320 327 332 333 335 337 336 337 338 339 338 338 338 339 339 340 339 336 337 338 337 337 337 336 335 335 336 332 330 328 328 328 329 326 329 328 330 328 327 326 321 321 322 319 318 317
306 300 302 300 300 300 302 303 303 302 302 302 301 300 302 303 303 301 301 297 297 299 300 301 301 301 301 301 302 304 303 304 304 305 305 305 306 306 307 306 309 310 311 311 312 314 315 316 316 318 318 319 325 330 332 333 334 335 336 336 337 337 338 337 337 337 335 337 339 337 337 336 335 335 335 335 334 334 335 334 332 332 330 330 329 329 329 329 329 331 329 326 323 321 319 316 314
299 301 301 302 301 301 303 303 302 301 302 301 300 302 303 302 300 303 301 300 299 301 301 301 301 301 301 302 302 302 302 303 303 304 305 304 305 307 306 306 307 308 309 311 313 314 316 316 316 318 317 318 325 330 331 332 334 335 336 333 334 334 335 333 333 332 333 334 334 334 334 335 334 333 333 334 333 333 333 332 332 331 329 329 328 327 328 328 330 329 327 325 323 320 317 315 314
303 303 301 301 302 302 304 302 302 300 301 301 302 303 300 300 297 302 300 299 300 301 301 300 301 301 302 301 301 301 302 302 303 304 305 305 306 307 307 306 307 308 310 312 313 314 315 314 318 317 316 318 326 330 331 332 334 331 329 328 329 328 328 328 328 327 328 328 328 329 329 333 334 333 332 333 332 332 333 332 331 330 330 329 328 330 329 329 328 326 326 326 325 321 319 316 314
300 300 302 301 302 302 302 301 301 302 301 302 303 299 299 300 300 301 299 299 299 299 300 300 301 301 301 300 300 301 301 302 302 304 306 304 306 307 307 306 307 308 310 310 311 312 313 316 320 323 319 320 326 329 329 330 329 327 326 326 325 324 325 326 325 324 324 325 326 327 327 331 331 331 330 329 329 328 328 328 328 327 327 328 327 325 326 326 326 325 323 321 322 323 320 317 316
302 301 302 302 302 303 301 301 302 301 302 302 300 299 300 301 300 299 299 299 299 300 299 300 300 300 300 299 300 300 300 301 303 303 304 305 305 305 305 306 307 308 309 309 308 310 313 320 321 322 324 325 327 326 325 324 323 322 323 322 322 322 322 323 323 320 321 323 323 324 324 326 328 328 327 325 324 324 324 323 324 323 323 324 325 323 323 323 320 319 319 318 319 320 319 318 317
302 301 302 301 302 303 302 301 302 302 301 301 298 298 300 299 299 293 299 299 300 299 299 299 299 298 299 300 300 300 300 300 301 303 303 303 303 303 303 303 305 307 307 306 307 310 316 318 319 318 319 319 321 320 320 321 319 318 317 317 318 319 320 319 318 317 318 320 321 321 322 323 324 324 324 323 322 321 320 321 321 321 321 321 322 321 320 320 318 317 318 318 318 319 318 317 316
303 302 300 301 301 302 302 302 302 300 299 301 300 299 299 299 298 296 298 299 300 298 298 298 299 297 297 299 299 301 300 301 300 301 300 300 299 300 301 301 303 305 305 305 308 311 316 316 315 314 315 315 315 316 317 317 316 315 315 314 313 313 314 314 314 314 314 316 318 320 321 321 321 322 323 322 321 320 319 319 319 318 318 319 320 320 319 319 318 317 317 317 316 318 318 317 317
302 301 297 300 301 300 302 301 301 301 299 300 301 297 296 295 294 298 298 299 299 299 298 298 298 298 298 298 298 298 298 299 300 299 299 300 300 301 301 302 302 303 305 306 309 311 313 314 312 311 311 310 310 311 312 312 313 312 310 309 309 310 309 309 308 309 310 311 311 312 314 316 320 319 318 318 318 318 318 318 318 318 319 319 319 319 319 319 318 316 315 315 315 316 315 314 316
303 300 297 297 298 298 302 303 300 298 299 299 299 288 293 296 297 297 299 298 299 298 297 297 297 297 297 297 297 298 299 298 298 298 298 299 301 301 301 302 303 303 304 306 308 309 311 311 311 310 309 308 308 308 308 307 308 308 308 307 307 307 306 306 305 306 306 306 306 308 310 311 313 317 318 317 317 316 315 315 314 314 314 316 317 317 317 316 315 314 315 315 314 314 313 312 312
296 300 299 293 292 292 300 300 298 297 299 298 299 290 292 294 295 298 298 299 298 296 296 296 297 297 296 297 297 298 298 298 298 299 300 300 299 300 302 302 302 303 304 304 305 308 308 308 308 307 307 307 307 306 305 305 305 305 305 305 305 305 304 304 304 303 303 304 304 305 307 308 308 310 312 312 311 310 309 309 308 309 310 310 310 311 314 312 311 310 310 314 311 309 308 308 308
297 294 291 295 292 296 298 301 298 296 296 299 297 291 293 295 295 297 298 298 298 297 297 297 297 296 297 297 297 297 297 298 298 299 299 299 298 299 301 300 301 303 303 303 305 308 306 306 306 305 305 304 304 304 303 303 302 302 302 303 302 302 302 302 302 301 302 302 302 303 304 305 306 307 308 308 307 307 306 306 306 306 307 307 308 308 309 310 309 307 307 308 308 305 305 304 305
297 293 292 293 294 295 296 298 300 302 297 298 297 291 295 293 296 297 298 298 297 297 297 297 297 297 297 296 296 296 297 297 297 297 299 299 298 299 300 300 300 302 303 304 304 306 306 305 304 303 303 303 302 302 302 301 301 300 300 300 300 299 299 298 299 299 299 299 300 300 301 302 304 305 306 306 305 304 304 304 304 305 305 305 306 306 307 308 309 307 304 304 303 302 301 300 301
293 295 292 296 294 294 292 296 299 301 297 293 296 293 294 296 295 297 297 298 297 296 297 297 297 295 296 296 296 297 297 297 296 296 297 298 298 299 300 301 301 301 302 305 305 305 304 304 303 303 303 302 302 301 301 300 300 300 299 298 298 298 297 298 297 298 297 297 298 298 299 299 301 303 304 304 304 303 303 302 302 303 303 303 302 302 302 304 305 305 304 302 300 299 298 298 298
292 294 291 293 296 296 294 293 296 298 297 295 294 293 294 296 295 296 296 298 297 296 296 297 296 296 295 295 295 297 297 296 295 296 297 298 298 298 299 301 301 301 303 305 305 306 305 305 304 304 303 302 302 302 301 300 300 299 299 298 297 297 296 297 296 296 296 296 296 297 297 297 298 300 301 301 301 301 300 299 299 299 300 299 299 298 298 298 299 302 300 300 299 298 296 296 295
296 296 296 294 292 294 294 296 297 298 294 294 295 293 296 297 295 296 296 297 296 296 296 296 296 296 296 295 295 295 296 295 295 296 297 298 298 298 298 300 300 301 303 304 304 305 304 304 304 304 303 303 303 302 301 300 299 298 297 296 295 295 295 294 294 294 294 294 295 295 295 295 295 296 296 297 297 297 296 296 295 295 295 295 294 294 294 294 296 297 299 298 296 294 294 293 293
298 298 296 294 294 294 298 296 298 297 296 294 295 296 296 298 297 295 296 296 296 295 296 296 296 295 295 295 295 295 295 294 296 297 297 297 298 298 299 299 299 301 302 303 302 302 303 303 302 301 304 304 302 300 299 298 296 296 295 294 293 293 293 293 292 292 292 293 293 293 293 293 293 294 294 294 293 294 293 293 292 292 292 292 292 291 292 292 293 294 296 297 294 292 291 291 292
297 296 294 293 296 293 298 297 296 298 295 293 295 295 296 298 299 297 296 295 294 295 296 296 295 295 295 295 295 295 294 294 295 295 296 296 296 298 298 298 299 299 300 301 300 301 302 302 300 301 301 300 299 298 297 296 296 294 294 292 291 291 291 290 290 290 291 292 292 291 292 292 292 292 293 293 292 292 291 291 291 291 290 290 291 291 291 292 291 292 292 292 293 292 290 290 291
297 295 293 292 293 297 299 296 297 297 295 292 294 294 295 297 299 297 295 295 296 297 297 297 296 295 295 295 295 295 293 293 294 294 295 296 297 297 297 296 297 299 299 300 301 301 300 300 299 298 298 297 296 296 295 294 294 293 292 291 290 289 290 290 290 290 290 290 290 290 291 291 291 291 291 292 292 291 291 290 290 290 290 290 289 289 290 290 290 290 290 290 289 289 291 291 289
295 293 291 289 295 294 290 294 296 295 294 292 293 292 295 298 299 300 296 296 296 297 299 298 298 295 295 295 295 294 293 293 293 293 294 295 295 295 296 296 296 297 298 299 299 299 299 298 297 296 294 294 293 293 294 293 293 293 292 291 290 290 288 290 289 289 289 289 289 289 290 290 290 290 290 290 290 290 290 289 289 289 289 289 288 288 288 288 289 289 289 289 289 286 287 287 289
295 295 293 292 294 295 294 293 293 295 295 295 293 291 292 295 295 297 299 297 296 293 294 293 294 296 296 296 296 295 294 294 293 293 294 295 295 295 295 296 297 296 297 297 298 297 298 296 295 294 294 293 293 293 293 292 291 291 290 290 290 289 289 287 287 287 287 288 288 288 288 289 289 289 289 289 289 289 289 289 288 287 288 288 288 287 287 287 288 288 288 287 287 286 286 285 286
292 296 296 296 296 295 296 297 295 291 290 294 292 284 285 294 295 296 293 291 292 293 293 293 293 294 294 294 294 294 295 295 293 293 293 294 295 295 295 296 296 296 295 296 297 297 296 295 294 293 293 292 292 292 292 292 291 290 289 288 287 286 285 285 284 284 285 286 286 287 288 288 288 288 288 288 289 288 288 288 287 286 286 286 287 287 287 287 287 287 287 286 286 286 286 285 284
290 293 298 297 296 296 296 294 293 285 283 292 296 284 284 292 294 295 291 292 292 291 292 292 293 293 292 293 293 293 294 294 294 293 294 294 293 293 294 295 295 294 293 295 295 295 295 294 294 293 292 292 293 292 292 292 291 290 290 289 287 286 285 286 286 286 286 286 286 286 286 287 288 287 287 287 287 287 287 287 286 286 286 286 287 286 286 286 286 287 287 286 286 287 285 283 284
289 296 300 298 297 295 294 295 293 290 294 295 293 291 284 286 292 297 292 292 292 292 291 292 293 293 293 293 293 293 293 293 292 293 293 293 293 293 294 295 294 293 293 293 293 293 293 292 292 292 292 292 292 292 293 293 290 290 289 288 287 286 286 286 286 286 286 286 286 285 286 286 287 287 287 287 287 287 287 286 286 286 286 286 286 285 285 285 286 286 286 286 286 286 285 283 282
294 296 299 296 297 296 296 294 290 289 287 284 287 292 284 284 291 296 293 290 290 291 292 291 292 293 293 293 293 293 293 293 293 292 292 293 293 293 294 293 293 292 292 292 291 291 292 291 291 291 291 291 291 292 292 292 291 290 289 288 287 287 287 287 287 287 286 286 285 285 285 285 286 287 287 287 286 287 287 286 286 285 285 285 286 286 285 285 285 285 285 285 284 285 285 284 283
297 298 297 297 297 296 296 289 289 287 286 283 286 291 284 286 291 293 291 292 292 293 293 292 292 293 292 292 293 293 292 292 292 292 292 293 293 292 291 291 291 291 291 291 290 291 291 290 290 290 290 290 291 291 291 291 290 290 288 287 287 286 287 287 286 286 285 285 285 285 284 285 284 285 286 286 286 286 286 285 285 285 284 285 285 284 284 284 284 284 284 284 284 283 284 284 284
298 298 296 294 293 290 289 289 287 285 282 285 290 291 289 283 289 292 290 291 295 296 294 293 293 293 292 293 292 292 292 292 291 292 292 292 291 290 290 289 289 289 289 289 289 289 289 290 289 289 289 290 291 291 290 290 290 289 288 288 287 287 287 286 286 285 285 285 284 284 284 284 284 284 284 285 285 285 285 285 284 284 284 284 284 283 283 283 283 283 284 283 283 283 283 282 283
297 293 289 291 288 287 286 285 286 280 281 284 290 291 291 282 284 293 296 295 296 297 294 292 292 292 292 292 292 292 292 292 291 291 290 289 288 288 289 288 288 288 288 288 288 289 289 289 289 288 289 290 290 291 290 290 290 290 289 289 288 288 287 287 285 285 285 284 284 284 283 283 283 284 283 283 283 284 284 283 283 283 283 283 283 283 283 283 284 283 282 283 282 282 283 283 282
295 291 289 284 282 281 279 282 278 280 280 282 285 291 285 287 291 293 296 294 294 294 295 293 292 292 292 292 292 291 291 291 291 290 289 288 287 287 287 287 287 287 287 288 288 288 288 288 288 288 288 289 290 290 290 290 290 290 289 289 288 288 287 287 286 285 285 284 284 283 283 282 282 282 282 282 282 283 283 283 283 282 282 282 283 282 282 283 283 282 282 281 281 281 281 281 280
291 289 286 283 281 279 277 279 281 280 283 284 284 288 285 288 290 297 298 295 292 292 294 295 293 292 292 292 291 291 291 290 290 289 288 288 287 287 287 287 287 287 287 288 288 288 288 288 288 288 288 289 289 289 290 289 289 289 288 288 288 288 287 286 286 285 285 284 284 283 283 282 282 282 282 282 282 282 282 282 282 282 282 281 282 282 281 282 282 281 281 280 280 280 280 280 280
291 293 291 287 285 280 276 281 279 280 281 281 284 283 280 281 287 291 291 291 290 290 293 294 293 293 292 291 291 290 290 289 290 289 288 288 288 288 287 287 287 287 287 288 288 287 287 287 288 288 288 288 288 288 288 288 287 287 287 287 287 287 286 286 285 285 285 284 284 283 283 282 282 282 281 282 282 282 282 282 282 281 282 281 281 281 282 281 281 281 281 280 279 280 279 279 278
290 293 294 288 286 289 284 283 282 279 280 278 279 281 283 287 291 289 290 289 289 290 291 293 292 292 291 290 290 290 290 289 289 289 288 288 288 287 287 287 287 287 287 287 287 287 287 287 287 288 288 288 288 287 287 287 287 287 286 286 286 286 286 285 285 285 284 284 283 282 282 281 282 281 282 281 282 282 282 282 281 281 281 281 280 280 279 279 279 278 279 278 278 281 278 278 278
289 291 286 290 293 292 286 282 282 280 279 280 283 281 285 291 290 288 288 288 289 289 291 290 290 291 290 290 289 289 289 289 289 289 288 288 287 287 287 286 287 286 286 287 287 288 288 288 287 287 287 287 286 286 286 286 286 286 285 285 285 284 284 283 283 283 283 283 283 282 282 281 282 282 283 281 281 281 280 280 280 280 280 280 279 278 278 277 278 277 277 277 277 277 277 277 278
290 284 289 294 295 293 286 281 281 280 279 282 283 283 282 282 284 288 287 286 286 287 287 290 290 290 289 289 289 289 289 289 289 289 288 288 287 287 287 287 287 286 286 287 287 288 288 288 287 287 286 286 286 286 286 286 285 285 285 285 284 284 284 283 283 282 282 282 282 282 281 281 280 281 282 282 281 280 279 280 278 278 278 277 277 277 277 277 277 277 276 277 276 276 276 277 277
291 288 296 290 282 282 285 283 279 278 279 281 280 283 285 285 287 285 287 287 287 287 288 288 289 289 289 290 290 290 289 289 289 289 288 288 287 287 287 287 287 286 287 287 288 288 287 287 287 287 286 286 286 286 285 286 285 286 286 284 284 284 283 283 283 283 282 281 281 280 280 280 280 280 280 279 279 278 278 278 277 277 277 277 276 276 276 276 276 275 276 276 276 276 275 275 276
294 294 290 294 287 284 283 286 283 283 280 278 283 283 284 288 290 288 290 290 290 288 288 289 290 290 290 290 290 290 289 289 289 289 288 288 288 287 287 286 286 286 286 286 287 287 286 287 286 286 286 285 285 285 285 285 285 285 284 283 283 283 283 283 283 282 281 281 280 280 280 279 279 280 279 278 278 277 277 277 276 276 276 276 276 276 275 275 275 275 275 276 275 274 274 274 274
286 285 283 288 286 288 286 286 284 282 280 280 281 280 284 289 295 292 293 293 292 290 289 290 291 291 291 291 291 290 290 290 289 289 289 288 287 287 286 285 285 285 285 285 286 286 286 286 285 285 285 284 284 284 284 284 284 283 283 282 282 282 282 282 282 281 281 280 280 280 279 279 279 278 278 278 277 277 276 276 276 276 275 275 275 274 275 274 274 274 274 275 275 274 273 273 274
291 290 287 290 287 284 282 282 287 285 283 281 280 281 286 293 294 296 295 295 294 293 291 291 291 291 291 291 291 291 290 290 289 289 289 288 287 286 285 285 284 284 284 284 285 285 284 285 285 284 284 284 283 283 284 283 283 282 282 281 281 281 281 281 281 280 280 280 279 279 279 278 277 277 277 277 277 276 275 275 275 275 275 274 274 274 274 273 273 273 273 276 276 273 273 273 273
Wind_Speed
9 9 4 4 3 4 3 1 1 1 2 5 3 2 2 2 1 2 6 2 5 3 3 3 3 4 4 1 6 10 10 8 8 5 2 2 2 5 3 2 2 3 6 7 7 6 5 5 7 8 11 10 11 12 11 12 11 11 10 10 10 10 10 10 9 10 10 10 10 10 10 9 10 10 11 11 11 11 11 12 12 11 12 12 13 13 14 15 15 15 16 16 16 15 14 13 13
7 7 6 4 3 2 1 2 1 1 3 6 5 4 2 1 0 7 5 7 4 2 2 2 3 2 2 1 0 8 10 11 10 7 4 9 8 5 3 5 3 6 4 7 7 7 5 5 6 6 10 11 11 12 12 11 11 11 10 10 9 9 10 10 9 10 9 9 9 9 9 9 9 10 10 10 10 11 10 10 11 10 11 11 12 12 14 14 15 15 15 15 16 15 14 13 12
7 7 6 5 3 2 3 1 2 2 3 6 4 2 3 3 6 6 7 7 4 3 0 2 0 1 4 5 3 7 4 12 8 10 6 2 2 6 3 2 5 4 5 7 6 6 5 6 7 7 9 10 12 11 11 11 11 11 10 10 9 9 9 9 9 9 9 8 9 8 8 8 9 9 9 9 9 9 10 11 10 10 10 10 12 12 13 14 14 15 15 15 15 15 13 13 12
5 5 4 3 2 3 1 1 3 3 4 5 4 2 3 5 6 7 6 5 4 1 1 1 1 1 3 8 3 8 6 6 8 4 2 5 3 2 2 2 6 1 4 7 6 5 4 7 8 7 7 9 11 11 11 11 11 11 10 9 9 9 9 8 8 8 9 7 8 8 8 8 8 8 9 9 9 9 9 10 10 10 10 11 11 13 13 15 15 15 15 15 16 15 13 13 12
3 3 3 3 1 1 1 2 3 5 5 2 4 2 5 4 5 6 4 4 3 3 4 1 0 3 7 5 5 2 3 1 11 10 3 3 3 2 2 1 3 4 2 6 8 7 7 11 9 8 7 8 10 10 11 10 11 11 10 9 9 9 8 9 7 8 8 7 8 7 8 8 7 8 8 8 8 8 9 9 10 10 9 11 12 13 14 15 15 15 15 16 16 15 14 13 13
6 3 3 1 1 0 0 2 3 7 2 1 4 3 6 5 5 5 5 5 3 3 1 1 2 2 3 5 4 3 5 2 3 5 4 4 3 4 5 3 4 3 3 4 7 8 8 11 10 10 9 7 7 9 9 10 10 10 11 11 9 8 9 8 8 7 8 8 7 5 7 7 7 7 7 8 7 8 8 10 10 10 12 12 12 13 14 16 15 16 15 16 16 15 14 13 13
3 3 1 1 3 1 2 2 7 4 4 4 4 4 5 5 3 5 5 4 3 4 2 2 3 4 6 2 7 6 6 4 5 3 4 2 2 4 6 3 5 5 3 5 9 8 8 10 10 10 9 9 9 6 7 8 8 9 8 8 9 10 9 8 8 7 6 8 8 5 5 7 7 7 6 7 7 8 9 9 10 12 12 13 14 14 14 16 15 16 16 16 15 15 14 14 13
2 1 0 1 2 1 3 4 7 3 1 6 5 7 5 4 0 1 2 0 2 2 3 1 1 2 3 5 6 3 5 9 5 4 5 4 4 5 6 8 4 3 4 11 8 7 8 8 8 8 9 10 11 9 8 7 8 7 6 6 7 8 9 9 8 6 6 6 7 5 4 6 6 7 6 6 6 7 8 9 10 10 13 13 13 14 15 16 15 15 15 15 15 14 14 14 14
2 2 0 1 2 0 2 6 5 4 4 5 5 7 6 3 3 2 5 2 4 4 4 4 2 1 5 12 7 3 4 6 8 6 6 5 5 5 6 8 7 5 5 8 8 7 6 8 8 7 7 9 10 8 9 8 8 8 9 6 7 7 8 9 9 7 4 6 6 5 5 5 5 6 7 7 6 6 7 9 9 11 13 12 13 15 15 14 13 14 14 14 14 14 14 14 14
2 2 1 1 1 2 1 3 3 3 3 4 5 5 4 2 2 3 4 3 3 4 2 2 5 5 10 11 6 3 3 6 5 6 6 6 4 6 8 6 7 5 5 5 8 6 6 7 9 9 5 6 7 11 10 9 9 8 10 7 6 8 7 8 8 7 6 5 4 5 5 6 5 6 8 7 7 7 6 8 8 11 11 11 13 13 12 12 13 13 13 13 13 13 13 13 13
2 2 1 1 2 1 1 4 5 3 4 3 4 4 3 2 1 2 5 5 1 3 2 3 2 3 3 4 4 4 6 5 7 7 4 5 5 6 7 5 5 6 5 6 4 7 6 6 9 9 8 5 7 7 6 8 10 7 10 6 8 5 7 7 8 7 7 6 4 4 4 5 6 5 7 7 8 6 8 7 8 9 10 11 13 12 11 11 12 12 12 12 12 12 12 12 12
1 1 1 2 3 1 2 6 6 4 5 4 4 4 1 3 1 2 3 5 2 4 4 6 1 3 1 6 3 5 6 9 5 4 4 4 4 5 7 5 5 4 5 4 5 6 3 5 5 7 8 8 6 6 5 5 6 9 7 9 8 7 7 7 8 8 8 7 6 5 4 4 5 6 6 7 8 7 8 7 7 9 8 12 12 11 11 11 11 11 11 11 11 12 11 11 11
1 4 1 3 3 3 3 5 3 5 4 4 6 3 0 2 2 3 4 3 1 5 4 4 2 1 3 3 5 4 11 6 4 3 3 3 4 5 6 5 4 4 3 4 6 4 5 1 5 5 7 8 7 6 4 5 7 6 6 6 5 6 6 6 8 9 8 9 8 8 7 6 6 6 7 7 8 7 7 6 5 8 11 12 11 11 11 11 11 10 10 10 10 11 11 11 11
0 1 2 2 1 2 0 2 4 4 2 3 5 4 2 1 3 4 2 1 5 5 1 2 2 4 3 6 3 4 5 5 4 2 1 3 4 5 5 4 5 5 6 7 6 6 6 6 5 2 5 5 5 5 6 6 3 4 4 5 4 1 4 6 7 8 9 9 9 9 9 8 7 7 8 8 8 8 7 5 5 8 10 11 11 10 11 11 10 9 9 9 9 10 10 10 10
2 3 1 2 2 1 2 2 4 3 1 5 4 5 3 4 2 1 5 3 4 4 3 5 2 1 1 2 1 2 4 4 3 0 0 2 4 4 6 6 6 5 4 5 4 4 4 5 6 5 1 1 4 5 4 6 8 7 8 5 2 4 2 5 7 7 8 8 8 8 8 8 8 8 7 7 7 8 7 6 5 7 9 11 10 10 10 9 9 8 9 9 9 9 10 10 9
1 2 1 0 1 1 0 0 2 3 3 3 4 6 4 3 2 0 2 2 3 1 2 3 5 2 2 4 1 2 3 3 3 1 3 2 4 5 4 6 5 5 5 4 4 3 2 3 3 3 5 3 1 4 6 7 7 9 7 8 7 3 1 3 4 6 7 7 6 7 8 7 6 6 8 7 8 8 7 4 6 5 9 9 9 10 9 8 8 8 9 8 7 8 9 9 8
1 1 1 2 1 2 1 1 2 0 5 4 3 4 3 3 2 2 1 0 1 4 6 4 3 4 5 3 2 1 2 3 5 2 1 2 4 4 5 3 6 4 4 5 5 5 3 3 2 4 2 4 4 2 1 6 8 10 8 9 8 7 6 2 3 4 6 5 5 4 5 5 5 5 6 5 6 5 6 6 6 5 7 8 8 8 8 7 8 9 8 6 6 7 6 7 6
0 0 1 4 3 2 1 0 3 4 4 4 4 1 1 5 1 2 1 2 2 8 7 5 8 8 5 3 2 1 3 4 5 5 5 4 5 4 6 5 5 5 5 4 5 6 6 4 2 1 4 3 5 4 2 5 5 7 7 6 5 5 5 5 2 2 3 3 3 3 3 5 5 5 5 7 5 5 5 7 6 5 7 8 7 8 7 6 8 8 7 5 5 5 4 3 3
0 2 2 1 4 0 4 5 6 2 5 4 4 2 2 4 1 1 0 4 4 7 4 5 7 6 5 4 3 4 4 6 5 6 6 6 5 5 4 4 5 4 5 5 5 5 5 5 5 5 3 4 3 5 4 1 7 5 4 6 5 6 5 5 4 3 3 2 3 3 5 4 3 4 6 6 6 8 8 8 8 7 9 8 8 7 6 6 6 7 6 3 3 5 3 1 3
0 1 2 3 1 4 6 6 4 6 3 5 4 2 2 4 0 1 2 2 4 1 7 4 5 5 4 4 3 4 5 5 6 5 6 6 5 5 4 4 4 5 4 3 4 3 5 4 5 5 4 5 2 5 3 2 3 6 4 5 6 5 6 5 3 2 1 1 1 2 4 4 4 5 5 10 10 5 5 5 4 6 8 8 8 5 5 5 5 4 5 4 1 1 5 5 3
0 1 2 1 2 2 4 4 5 5 7 3 3 3 2 2 2 1 2 2 2 5 6 1 7 6 5 4 3 3 5 5 5 6 6 6 5 5 4 4 4 4 4 4 4 4 5 5 4 3 5 4 3 3 2 4 5 2 2 3 5 5 5 2 3 4 1 2 2 4 5 3 4 3 4 1 2 5 5 4 3 3 3 3 6 3 3 3 2 1 2 1 1 5 5 5 4
2 2 2 2 3 3 5 7 7 4 3 2 3 1 0 3 2 2 2 4 1 1 3 5 5 5 4 3 3 4 5 5 6 5 6 5 5 5 4 4 4 4 3 4 5 4 5 5 6 4 2 4 3 2 1 1 2 3 4 4 4 5 5 4 5 5 4 5 2 1 3 3 1 2 1 3 3 2 4 4 2 1 3 3 3 2 4 5 2 2 2 1 4 5 4 3 4
1 1 3 3 2 2 1 4 2 3 1 1 1 2 2 0 3 2 2 1 4 3 3 4 5 4 3 3 3 4 4 5 5 4 4 5 5 5 5 5 4 5 5 4 4 4 4 5 5 5 2 4 3 3 2 1 0 4 6 9 8 7 6 7 7 7 7 7 6 5 3 3 6 4 6 5 2 3 4 2 4 3 2 3 3 1 3 2 0 2 4 4 4 4 3 3 3
1 0 2 3 3 2 1 4 3 1 3 1 2 0 1 2 4 1 2 4 7 5 4 4 4 3 2 5 4 4 4 3 4 4 4 4 4 6 5 5 4 4 4 5 4 4 5 7 9 1 2 4 4 2 2 1 6 8 8 8 8 7 7 7 7 6 7 8 7 7 6 5 4 5 6 5 6 6 6 4 6 5 4 2 3 5 2 3 5 5 6 5 4 3 2 2 1
3 1 2 2 1 1 2 3 1 1 1 1 1 1 4 4 2 0 4 7 6 5 4 3 4 4 4 4 3 4 3 3 3 3 3 4 4 6 4 5 4 4 5 5 5 5 6 7 4 8 2 3 4 2 4 7 6 7 7 7 7 6 6 6 7 6 7 6 7 8 7 7 6 6 7 6 6 7 7 8 7 8 8 7 6 6 6 6 6 5 5 5 6 4 2 3 2
3 3 2 1 1 2 4 3 3 4 2 3 2 5 5 5 6 1 8 6 7 5 4 4 4 5 4 3 3 3 4 3 2 3 3 3 5 6 5 5 4 6 6 6 5 5 6 5 8 6 5 6 7 9 5 6 6 7 7 7 6 7 7 7 7 7 6 6 7 7 8 6 6 6 6 6 8 7 7 6 7 7 7 6 6 6 5 5 5 5 5 5 5 4 4 4 4
2 3 2 3 4 2 3 4 5 6 4 4 4 4 4 3 3 3 3 8 7 6 5 4 4 4 4 3 3 3 5 4 3 2 4 4 5 5 5 4 5 6 6 6 5 5 5 6 6 6 7 7 7 9 7 7 7 7 7 6 7 7 7 7 7 6 6 7 7 7 7 7 6 6 6 6 7 6 6 6 6 6 6 5 5 5 5 5 4 4 4 4 4 4 3 3 3
1 1 4 6 7 6 3 4 5 4 2 5 4 5 2 1 3 5 8 7 7 7 6 5 4 4 4 4 3 3 4 3 3 4 4 4 4 4 5 5 5 5 6 6 5 5 5 7 6 7 7 6 8 8 8 8 8 8 7 7 7 7 7 7 6 6 8 7 7 7 7 7 6 6 6 7 7 6 7 7 6 6 5 5 5 5 6 5 4 4 5 4 4 5 5 5 5
1 2 3 5 3 7 8 7 5 5 0 2 4 3 5 4 5 4 9 7 6 6 6 5 4 4 4 3 3 3 4 3 4 4 4 3 4 3 5 5 4 4 3 4 5 5 6 6 7 8 6 7 8 8 8 8 7 8 8 8 7 7 8 7 8 7 7 8 8 9 9 9 7 7 8 8 7 6 7 7 6 6 4 4 5 5 4 4 5 5 5 5 6 6 6 6 6
1 4 4 4 5 7 10 6 5 3 2 4 4 3 5 10 6 8 7 7 6 6 5 4 4 4 4 4 3 4 2 3 4 3 3 3 4 3 5 5 5 4 4 4 6 7 6 4 5 5 8 10 9 8 8 8 7 8 7 7 8 8 8 8 8 7 8 8 8 9 9 10 8 7 7 7 7 7 8 7 7 7 6 7 6 4 4 6 6 7 5 4 5 6 6 5 6
1 2 3 2 3 3 4 5 6 4 2 4 2 2 3 5 5 6 6 7 7 6 5 5 5 5 4 3 4 4 3 3 4 4 3 3 3 3 4 5 5 4 3 5 6 5 7 6 4 6 7 9 9 9 9 9 8 8 7 7 8 8 8 8 8 7 8 7 7 7 8 8 8 8 8 7 8 7 7 7 8 7 6 7 7 7 6 7 6 6 6 5 6 5 4 4 4
3 1 3 2 4 0 3 5 7 5 1 4 3 2 7 5 5 6 6 7 6 6 6 6 5 4 5 4 4 5 4 3 4 4 3 4 3 3 4 4 4 5 5 4 4 5 7 7 7 8 8 10 9 8 8 9 9 8 7 8 8 8 8 8 7 7 7 7 7 7 7 7 8 9 8 7 8 7 7 7 6 6 7 7 7 8 8 7 6 6 7 6 5 6 6 7 6
3 6 3 3 3 3 1 4 4 2 5 3 7 3 1 1 5 6 5 7 6 5 7 6 6 6 6 5 5 5 6 4 4 4 3 4 3 3 4 4 4 4 4 4 4 4 7 6 7 8 9 9 10 11 10 10 9 9 9 9 9 8 8 8 7 7 7 7 7 7 7 7 7 7 8 7 7 7 6 6 6 6 4 6 7 7 7 6 5 5 6 7 7 6 7 6 6
4 4 5 4 4 3 3 1 2 2 5 4 5 4 7 1 7 6 7 8 8 6 6 7 7 5 6 5 5 6 6 6 5 5 4 3 4 5 5 4 3 4 3 4 4 5 7 6 7 8 8 8 8 8 8 8 8 9 9 8 8 9 9 8 7 7 8 7 7 8 8 8 8 8 8 6 8 8 8 8 8 9 8 8 8 8 8 7 5 5 4 6 9 8 7 8 8
4 2 3 5 5 6 4 3 5 4 5 4 6 10 9 4 6 9 10 9 9 9 8 8 8 7 6 6 5 6 6 6 6 5 4 4 4 4 3 4 4 4 3 4 4 4 5 5 6 8 9 9 8 8 9 9 9 10 9 9 9 10 9 8 7 8 7 7 8 8 9 8 9 10 9 9 8 8 8 8 9 8 8 8 8 8 8 8 9 7 9 8 7 7 7 7 6
6 5 1 3 3 3 2 2 3 4 5 5 6 6 7 6 8 6 6 9 10 9 6 6 8 7 7 6 6 5 5 6 5 5 4 4 3 4 3 3 3 2 4 4 2 3 5 5 6 6 6 6 6 6 5 7 7 7 8 7 9 9 8 8 8 8 7 8 8 8 9 9 9 9 9 9 9 8 8 8 8 8 8 8 9 10 8 8 9 8 6 7 7 8 9 9 10
6 1 3 5 4 4 6 4 1 2 1 5 5 6 8 9 5 11 10 8 7 6 8 7 8 8 8 7 7 6 6 7 5 6 4 4 4 3 3 3 3 4 5 3 2 3 3 4 4 5 4 4 5 6 6 6 7 7 8 8 9 6 7 8 8 8 8 8 9 9 9 9 9 9 9 8 9 9 8 8 8 8 8 8 9 9 8 8 8 8 6 5 8 9 10 11 11
4 3 4 5 2 6 4 2 3 1 0 2 3 5 8 8 6 7 7 9 10 10 10 8 8 8 7 8 8 7 6 6 6 6 5 4 4 4 3 3 3 5 4 3 2 3 4 4 5 5 5 7 6 6 6 6 5 5 7 6 8 6 6 7 8 8 8 8 9 9 9 9 10 10 9 8 8 8 8 8 8 8 8 8 8 8 9 10 11 10 8 7 5 7 7 9 10
5 3 2 4 5 4 4 5 3 1 3 6 6 8 8 7 6 4 13 13 12 14 14 14 13 10 8 8 8 8 8 7 6 6 5 4 5 5 4 3 3 4 3 3 2 3 4 5 5 5 6 6 6 6 6 7 6 6 7 7 8 9 7 7 7 7 7 9 9 9 9 9 9 9 9 8 8 8 8 8 8 7 8 7 9 10 10 11 9 10 9 7 6 6 5 7 10
1 2 3 7 3 3 3 1 0 2 1 2 3 9 10 10 9 10 11 13 8 7 8 5 8 10 9 10 10 10 9 9 9 8 8 6 5 5 5 4 4 4 3 3 2 3 4 5 5 6 6 6 7 7 8 8 9 9 9 9 8 9 8 7 8 8 8 10 10 9 9 8 9 9 9 9 8 9 8 8 7 8 8 7 8 9 10 10 9 9 9 9 6 7 6 8 8
4 6 5 4 4 5 6 2 3 3 4 3 6 8 11 9 11 11 10 5 4 1 4 3 3 4 6 6 7 8 10 11 10 9 8 8 7 6 6 5 4 4 3 3 2 3 4 5 5 6 6 6 6 7 8 9 11 10 10 10 9 9 7 7 7 8 8 7 8 9 8 8 8 8 8 9 8 8 8 8 8 8 8 8 7 8 8 8 7 7 8 8 9 5 7 5 8
5 6 9 7 6 6 5 3 2 2 3 6 5 4 4 6 12 15 3 3 4 4 6 5 4 2 6 8 8 7 6 8 10 11 10 9 8 7 6 7 5 5 4 2 3 4 5 6 6 7 6 6 8 7 8 8 8 9 8 7 7 7 8 7 7 7 6 7 8 5 8 8 8 8 8 8 8 8 8 8 7 8 8 8 8 7 7 8 9 9 8 7 9 9 4 7 7
3 3 5 11 8 5 3 5 2 4 3 2 1 4 8 3 8 2 4 6 9 4 7 7 7 6 5 6 7 7 9 9 7 8 9 9 8 8 7 7 6 6 4 3 3 5 5 6 6 6 7 6 6 7 8 7 6 5 5 6 7 7 10 6 5 5 6 6 6 8 7 7 7 8 8 7 8 8 7 7 7 7 7 7 7 8 8 8 7 7 7 7 7 7 7 7 7
4 1 4 2 2 2 3 3 4 5 3 1 2 2 8 11 10 7 5 7 9 9 9 9 10 11 10 8 8 7 8 8 9 9 9 8 9 9 9 8 7 7 5 4 4 4 6 6 6 6 5 5 4 4 4 6 8 8 9 8 7 7 8 9 6 6 6 6 8 8 7 7 7 7 7 7 7 7 7 7 7 6 7 6 7 7 7 6 7 7 7 7 6 7 7 7 5
2 1 3 2 1 0 1 1 3 3 3 6 5 2 4 6 3 8 9 6 9 14 13 13 13 11 12 11 10 10 8 8 9 10 10 10 11 9 8 8 7 7 5 4 4 5 5 6 7 6 6 5 4 5 6 7 7 9 8 9 9 6 8 8 6 6 6 6 8 7 7 7 7 7 6 7 7 6 6 6 6 7 7 6 6 6 6 6 6 6 8 8 7 7 6 5 5
0 2 4 3 3 1 0 1 1 3 2 10 5 6 5 16 5 4 5 9 12 13 14 14 13 13 12 12 11 11 10 8 7 8 8 9 9 8 7 8 7 6 4 4 4 5 5 6 7 7 6 5 5 6 8 8 8 8 9 9 11 10 7 7 6 7 6 5 7 7 6 6 6 6 6 5 6 6 6 6 6 6 6 6 7 6 6 6 6 6 6 6 6 7 6 6 6
5 4 4 2 1 1 1 0 1 3 8 12 8 9 8 11 2 9 8 8 11 9 4 7 9 9 9 10 11 12 12 11 9 9 8 7 6 8 9 9 7 6 5 4 5 5 5 6 7 8 6 6 6 6 7 8 8 8 9 9 10 11 9 9 8 7 6 6 7 6 6 6 6 6 6 6 5 5 5 5 6 6 6 6 7 7 6 6 6 6 6 5 6 7 6 6 6
5 2 2 1 1 2 0 1 2 3 11 3 13 11 12 10 2 3 8 2 5 8 7 10 12 13 12 10 10 11 11 11 11 10 10 9 8 8 8 9 8 7 5 5 5 5 6 6 7 8 7 6 6 6 7 8 8 8 7 8 9 9 9 8 9 9 7 7 7 7 6 7 6 6 5 6 6 5 5 6 5 6 6 6 7 6 6 6 5 5 6 6 6 6 5 5 5
2 4 4 6 2 2 2 2 4 8 10 1 2 11 4 18 12 5 2 2 0 3 7 13 14 12 11 10 11 10 9 10 11 11 11 10 10 11 10 9 9 8 7 6 7 6 6 7 8 9 8 6 6 6 7 7 8 8 8 8 7 8 8 8 8 8 6 7 7 7 7 7 6 6 5 6 4 5 4 5 6 6 6 6 5 5 5 5 5 5 6 5 6 5 5 4 5
5 7 7 5 3 4 5 4 4 3 4 1 0 1 8 2 5 12 20 5 2 3 1 10 13 15 14 13 12 11 10 10 11 11 11 10 11 10 9 10 9 8 8 8 7 7 6 7 7 9 8 6 6 7 7 8 7 7 6 7 7 8 8 8 7 7 7 7 7 7 7 7 6 5 4 4 4 4 5 4 4 5 5 4 5 5 4 5 5 4 5 5 4 4 5 4 4
11 5 9 9 7 3 4 5 7 5 2 1 3 5 6 5 6 1 2 3 3 2 2 6 7 9 10 10 9 10 10 9 10 11 11 12 11 11 10 10 9 8 9 8 7 7 7 8 8 9 9 7 7 7 7 8 7 7 6 6 7 7 8 8 7 7 7 8 7 8 7 6 7 5 5 3 4 4 4 4 4 4 4 4 4 5 5 5 4 4 4 4 3 4 4 3 4
5 5 2 4 9 1 8 1 0 1 2 2 2 6 2 5 0 2 2 3 3 2 2 7 9 9 10 10 12 12 11 11 10 10 10 9 10 9 9 9 9 9 9 7 7 7 8 8 8 9 10 9 8 8 7 8 7 7 6 7 7 8 7 7 7 7 7 7 8 8 8 7 6 6 4 4 3 3 3 4 4 4 4 4 4 4 4 4 4 3 4 3 4 3 3 3 2
4 5 9 9 1 4 5 2 2 2 2 11 5 6 5 5 5 4 2 4 2 1 1 5 7 10 11 11 11 11 11 11 10 11 10 11 10 8 9 9 9 9 9 9 8 8 9 10 10 10 9 7 8 8 8 7 7 7 7 7 8 8 8 8 9 8 8 7 8 7 7 6 5 4 4 3 4 3 3 4 4 4 4 4 4 4 4 4 4 3 3 3 4 4 4 3 1
7 4 5 3 4 3 2 3 0 2 6 8 8 11 4 5 10 5 5 4 4 4 5 5 7 8 12 10 11 12 12 11 9 8 8 9 10 10 9 8 8 9 9 9 9 7 8 9 10 11 10 11 8 8 8 7 8 8 8 8 7 7 8 8 8 8 7 9 8 7 6 6 5 4 3 3 4 4 4 4 4 4 4 4 4 4 4 4 4 3 4 3 4 4 4 4 3
4 4 1 7 2 2 2 2 8 4 9 6 4 7 10 11 10 2 6 7 8 9 7 6 10 11 12 10 10 10 10 10 11 12 11 11 11 11 11 10 9 8 8 8 8 8 8 7 8 10 11 10 9 8 7 7 6 7 6 7 8 8 7 7 7 8 8 9 7 6 6 6 5 4 4 4 4 4 4 4 4 4 4 4 4 4 4 4 3 3 4 4 4 4 4 4 3
1 1 2 0 1 1 6 7 1 2 7 1 13 6 14 8 8 14 13 15 13 11 10 13 15 15 13 12 13 14 14 13 13 12 12 12 11 11 12 12 12 12 11 9 8 7 9 9 10 9 8 8 8 8 8 8 7 7 8 7 6 7 7 7 7 8 8 7 7 7 6 5 4 4 4 4 4 4 4 4 4 4 4 4 4 4 3 3 3 4 4 4 3 4 3 3 3
3 1 2 1 1 1 2 3 5 4 3 6 8 11 3 3 9 14 15 16 15 16 17 15 13 13 13 13 14 14 14 14 13 13 13 13 12 11 10 8 8 7 7 7 8 9 9 8 9 9 11 10 9 8 8 7 8 8 9 8 8 7 7 7 7 7 8 7 6 6 5 4 5 4 4 4 4 4 4 4 4 4 4 4 3 3 3 3 3 3 3 3 2 2 3 3 3
15 15 13 15 10 5 4 10 3 4 3 7 3 16 5 2 2 7 13 13 12 15 16 14 13 13 14 13 13 15 14 13 14 13 13 13 11 10 8 7 6 8 9 9 8 7 8 8 9 9 9 9 10 9 8 8 7 8 8 8 8 6 7 7 7 7 7 7 6 6 5 4 5 4 4 4 4 4 4 4 4 4 3 3 3 2 2 3 3 2 3 1 0 2 2 3 2
Wind_Direction
302 290 273 286 295 277 335 236 319 209 208 65 100 36 67 56 292 102 46 133 65 62 9 17 16 7 22 197 64 69 41 48 20 77 130 162 102 63 35 27 358 127 125 120 115 117 121 133 147 141 144 145 138 133 132 129 126 123 122 118 119 116 113 109 106 107 104 99 96 92 85 83 76 69 66 69 75 83 86 82 78 73 74 71 66 64 67 62 56 50 46 43 38 33 31 29 29
299 310 296 263 264 3 294 138 290 262 85 79 78 109 116 163 91 46 68 63 43 62 357 35 13 360 230 3 61 84 49 39 80 85 89 118 119 73 36 3 301 139 126 120 128 129 134 137 136 140 144 145 141 137 134 132 129 127 124 124 122 121 118 118 113 106 105 103 101 96 89 85 79 73 70 68 70 77 86 84 80 81 79 74 72 69 67 61 54 48 43 42 39 34 32 32 33
311 315 309 279 227 196 299 184 298 146 130 95 58 90 252 67 66 71 65 52 56 59 48 84 304 72 319 159 62 62 92 44 41 93 88 33 40 26 18 356 333 139 130 124 134 135 133 137 140 147 150 147 142 141 139 135 134 132 130 128 126 123 122 118 117 112 110 109 105 105 100 86 83 82 79 76 74 76 81 87 80 79 78 78 79 74 68 59 54 47 43 40 39 36 34 35 35
286 282 281 330 313 138 270 196 206 308 82 126 101 53 45 85 83 86 65 66 50 309 252 129 123 219 2 62 30 88 43 47 32 19 89 44 29 1 14 340 285 66 95 128 139 134 119 133 143 146 153 153 147 144 142 139 140 137 136 133 131 129 128 124 120 118 114 120 114 110 106 98 90 91 88 89 84 80 84 87 88 82 79 82 78 74 65 57 52 46 41 38 36 36 36 36 38
274 254 228 299 338 258 318 254 304 58 31 358 113 118 90 89 89 87 83 93 67 13 356 45 107 8 73 55 8 38 334 203 52 35 75 100 355 350 128 223 268 76 147 132 151 130 131 138 147 143 157 165 154 147 147 147 144 143 139 139 135 132 131 130 128 120 123 120 117 116 108 102 93 91 92 91 96 94 93 94 86 75 67 73 70 67 61 59 55 47 40 36 34 35 35 37 38
245 244 220 156 288 112 322 306 61 68 23 272 119 93 74 75 95 103 116 100 111 58 343 351 12 121 47 44 12 68 340 31 50 54 12 70 356 343 339 234 140 138 161 145 113 110 132 140 142 148 157 151 161 152 150 149 149 148 144 139 135 135 133 130 130 134 131 126 116 118 110 105 94 84 92 96 98 99 97 95 85 76 63 62 68 63 59 60 53 47 40 35 33 35 34 35 38
330 343 181 225 274 100 243 284 89 99 353 37 97 101 92 75 102 134 119 110 77 92 9 43 356 102 100 148 87 68 41 3 60 27 55 84 26 9 355 339 85 114 164 84 90 104 123 129 143 145 142 157 146 167 155 154 152 147 145 133 139 138 134 130 129 132 134 125 127 132 119 108 102 93 85 93 95 100 102 94 84 76 72 65 61 61 61 63 54 47 40 38 36 36 36 35 36
248 35 228 262 273 98 263 93 49 56 30 41 52 94 99 105 205 186 97 51 143 142 131 121 85 2 154 113 107 65 79 67 78 53 70 67 49 37 15 5 78 107 93 85 96 96 95 98 128 132 135 162 161 168 161 157 140 146 128 141 145 141 138 134 134 136 138 130 127 128 113 108 108 100 89 89 92 97 100 91 89 83 77 74 71 65 63 62 54 48 45 42 40 39 37 38 37
218 160 92 47 254 74 340 55 87 78 105 85 65 63 67 61 8 7 100 117 112 60 49 8 26 264 102 84 86 115 42 73 74 52 60 57 75 60 40 31 22 29 37 98 114 115 99 86 78 110 140 160 153 156 161 161 156 153 146 179 161 150 144 141 139 139 125 124 129 126 104 110 105 105 93 70 76 86 94 96 86 85 81 79 75 72 67 63 58 54 50 49 47 44 41 39 40
269 162 305 259 318 196 83 133 117 128 104 110 126 119 113 160 128 303 129 131 72 90 43 12 307 83 115 104 115 44 50 18 56 48 49 59 40 89 62 45 19 19 42 17 99 115 116 98 85 69 105 153 153 164 164 160 157 170 158 163 161 166 150 137 137 132 126 107 105 118 111 110 118 115 106 111 78 94 92 71 80 87 86 83 84 82 77 73 66 60 55 53 52 52 49 45 44
298 168 178 8 255 154 198 120 93 124 120 106 93 95 92 51 264 81 19 84 13 83 97 25 332 14 85 52 69 115 68 50 40 40 20 71 52 52 85 58 36 22 40 19 30 119 130 118 99 87 70 99 155 149 162 156 154 175 151 189 159 183 150 135 138 130 124 125 125 112 104 92 118 129 122 110 105 104 107 96 95 91 87 88 90 91 87 80 75 67 61 57 53 53 56 57 54
329 223 80 282 263 199 234 117 133 116 123 146 117 129 168 140 203 187 176 142 169 119 64 355 52 6 327 131 138 126 80 47 36 10 10 53 68 55 75 67 58 54 42 16 6 54 73 133 123 108 96 81 73 109 130 161 155 170 172 169 164 176 155 143 137 141 136 129 121 127 110 92 125 135 129 122 115 119 121 117 105 92 98 99 102 97 94 89 80 74 70 64 59 56 56 60 61
266 326 281 263 284 29 14 103 119 122 110 204 139 105 157 154 234 26 62 53 253 116 70 13 324 288 337 76 131 76 43 25 22 360 10 45 61 68 69 74 71 59 57 64 38 33 21 27 137 147 132 113 90 88 130 144 149 173 176 168 152 189 151 149 143 142 144 140 133 124 120 115 122 130 135 134 129 125 121 116 110 109 104 108 109 102 98 92 88 85 83 76 69 64 64 62 63
212 19 356 297 310 29 44 55 99 119 196 108 98 132 178 221 48 3 333 267 53 62 57 333 359 33 121 108 113 61 36 3 353 29 315 93 100 92 89 81 67 59 42 48 41 24 21 11 13 59 144 151 153 136 116 136 137 146 148 149 140 168 155 146 137 138 140 138 138 137 133 132 134 139 144 141 133 133 123 115 129 118 109 110 109 106 101 96 91 90 86 82 76 74 74 74 69
335 341 285 304 306 41 21 111 168 188 85 114 131 141 145 48 67 64 37 42 75 71 114 57 349 309 328 331 121 36 349 337 327 285 291 110 92 94 118 115 92 77 84 79 51 28 14 21 11 352 7 184 183 166 172 157 171 162 166 135 137 148 164 155 140 136 136 139 138 139 134 129 134 137 139 136 129 128 127 106 117 118 121 116 113 108 103 101 98 90 81 76 74 70 72 77 75
314 351 262 304 219 153 247 15 113 193 120 110 189 122 135 103 2 60 44 11 131 17 27 41 30 35 24 65 67 344 345 326 294 252 157 130 137 151 145 120 102 102 72 68 92 100 68 12 353 11 343 328 296 187 175 166 159 153 151 150 168 179 173 88 124 136 125 122 126 137 133 124 129 137 135 136 139 135 137 124 118 106 121 123 117 114 110 107 101 90 79 73 73 71 68 70 70
307 181 357 226 277 156 174 157 106 297 98 100 157 167 145 146 129 86 173 39 193 116 79 22 57 37 69 76 68 13 1 350 331 47 49 127 158 145 85 78 108 79 81 71 45 29 63 81 4 341 337 345 329 338 207 146 159 152 150 158 166 177 177 210 123 104 109 104 120 129 142 144 152 139 146 140 139 134 122 138 133 126 128 129 124 119 121 118 103 94 87 80 82 88 79 73 68
351 247 200 257 183 88 149 253 107 145 113 144 156 185 218 135 203 87 131 184 272 99 95 112 68 73 96 108 100 83 56 33 18 57 37 31 23 54 59 42 45 64 38 45 49 37 10 6 15 334 335 344 338 322 315 125 143 159 154 153 157 158 169 174 175 166 174 134 136 158 196 205 187 164 161 143 154 129 134 151 152 142 136 131 131 130 132 122 112 108 106 116 108 125 124 93 65
4 286 283 356 12 301 354 56 44 350 114 116 82 22 343 74 159 84 295 183 209 114 110 127 101 114 102 86 62 54 61 47 32 51 55 42 34 57 49 50 49 37 40 17 25 41 15 356 4 350 349 316 333 320 311 68 150 174 186 163 158 160 163 178 178 200 186 166 176 200 215 223 207 124 143 158 150 150 150 159 160 146 138 140 135 136 137 125 122 122 132 132 159 132 187 170 131
263 60 321 43 50 54 39 47 66 32 63 126 133 76 319 117 261 150 228 301 178 166 143 144 122 122 97 84 55 53 60 60 42 45 54 47 43 37 49 33 40 52 28 30 13 26 27 8 356 331 4 322 345 307 320 314 179 174 184 149 147 172 166 171 206 148 18 51 329 323 339 346 46 88 91 123 131 140 142 139 127 134 137 142 138 135 133 108 111 144 141 181 210 170 60 42 58
3 246 23 46 5 105 56 61 56 49 11 52 69 96 266 157 111 154 282 296 259 73 20 29 120 114 103 90 67 52 57 55 51 44 50 45 43 37 34 52 43 48 16 34 4 27 24 358 339 338 338 317 297 297 328 345 347 42 104 106 117 139 91 17 55 34 82 127 331 327 326 37 43 28 107 42 149 125 141 141 133 148 147 147 155 143 146 126 140 220 187 151 227 75 63 45 37
317 59 104 52 338 69 69 69 38 53 32 354 74 254 96 51 147 212 228 225 88 43 59 48 63 72 75 73 81 64 57 58 51 41 48 49 39 33 21 33 46 45 34 33 5 12 17 348 334 294 279 281 283 238 260 265 37 8 54 53 84 76 69 101 68 51 38 31 107 72 355 31 191 184 175 114 325 74 141 153 113 160 156 158 204 159 131 137 227 270 302 135 85 75 82 81 50
345 92 58 32 50 59 90 101 43 334 26 4 300 1 20 301 310 237 216 45 106 76 95 82 78 78 94 83 69 64 57 59 51 48 46 43 40 36 20 28 31 26 23 28 2 20 357 331 285 264 192 271 250 254 227 1 67 48 66 55 61 53 68 59 56 47 46 49 34 26 40 3 18 32 34 37 37 14 64 19 167 174 125 134 186 103 77 116 83 29 45 55 76 88 94 88 87
219 212 140 77 340 48 32 89 122 76 65 314 28 351 306 316 282 1 106 110 107 116 103 104 100 102 96 83 63 70 73 58 72 70 59 54 52 54 23 21 25 32 29 20 12 1 357 317 314 309 160 237 227 227 158 192 58 64 67 68 62 69 69 63 57 48 50 44 32 26 5 46 81 46 56 44 49 28 13 22 35 53 59 61 37 45 48 19 47 33 36 31 23 78 80 112 138
290 74 46 85 355 240 97 125 167 193 221 289 62 345 249 228 240 143 122 132 134 121 118 111 117 103 94 81 87 94 80 59 52 73 80 59 53 74 42 22 31 33 29 18 3 1 332 324 323 356 332 253 224 147 58 69 78 73 68 70 68 72 72 74 66 55 54 46 42 34 19 38 43 61 55 53 64 57 44 35 41 40 38 32 43 43 37 33 34 36 29 27 26 4 53 31 16
26 73 287 132 229 207 180 168 204 194 210 185 223 239 252 244 79 281 128 127 126 131 118 136 127 120 103 98 97 93 93 84 62 50 68 69 53 52 44 37 18 31 18 14 360 350 326 347 4 355 9 25 61 75 79 67 71 79 69 69 76 74 70 66 67 61 51 55 49 38 32 32 50 60 66 56 59 49 47 46 51 49 45 32 43 42 32 48 36 22 26 31 33 16 34 20 25
283 0 338 296 270 256 169 210 216 188 201 174 208 240 253 105 130 231 109 133 135 141 138 144 144 120 120 126 112 97 99 89 73 44 63 65 40 50 39 27 23 20 13 8 357 338 347 3 9 7 18 26 55 72 70 74 67 71 63 62 61 63 67 70 66 60 56 57 52 48 45 35 46 58 68 68 69 66 61 61 57 59 55 42 50 57 35 50 52 37 30 25 15 15 1 49 7
329 16 296 261 247 245 224 205 238 115 221 193 195 247 101 185 94 236 147 147 151 143 147 153 144 142 130 127 118 111 91 86 74 63 60 56 50 42 47 24 13 13 10 360 351 330 8 10 12 16 28 36 53 61 65 70 65 64 63 62 58 52 55 60 60 56 50 41 39 43 42 39 35 42 50 64 70 65 58 53 52 55 56 51 55 57 54 46 54 40 27 22 354 7 15 17 1
15 278 298 295 259 221 204 214 204 166 325 149 178 276 240 173 224 119 132 147 165 149 149 160 144 140 133 125 125 94 77 71 66 70 60 69 69 48 59 43 16 4 1 348 348 3 16 14 20 17 28 43 53 57 60 61 63 59 58 52 51 51 57 56 51 46 51 42 38 34 35 30 32 48 43 44 47 56 57 50 42 38 40 59 75 79 78 68 58 44 30 24 24 22 23 5 358
280 246 226 294 270 256 214 176 120 136 137 172 105 285 241 214 133 123 133 155 164 150 158 160 152 149 151 141 118 103 95 98 74 69 56 62 67 52 62 47 29 23 359 353 356 24 27 24 25 25 42 48 50 56 57 65 59 65 59 60 57 56 57 59 55 54 52 47 40 37 39 35 30 39 49 53 52 48 51 44 38 33 18 22 29 30 64 52 41 34 15 48 37 33 26 10 1
227 307 129 230 324 286 78 128 148 165 146 171 161 209 312 77 120 137 160 157 170 165 167 170 159 153 145 131 123 123 100 78 101 89 85 70 81 76 71 55 42 26 18 4 2 19 50 34 30 51 49 63 58 61 61 67 60 66 64 63 62 62 65 66 59 56 57 54 51 45 47 48 42 44 51 55 52 51 55 52 39 28 21 27 29 22 43 50 45 35 21 38 51 30 25 14 13
210 334 255 211 197 221 217 139 166 172 232 205 146 261 258 177 158 157 169 164 185 177 172 168 161 160 151 153 162 137 129 125 114 102 95 96 68 87 75 58 42 37 25 3 1 33 52 48 56 74 57 71 65 60 63 69 71 70 69 66 71 63 66 65 62 57 57 55 52 52 45 52 55 53 56 61 67 61 62 62 57 48 43 43 40 37 35 39 47 41 28 27 29 26 18 7 357
192 175 270 298 200 205 166 202 201 360 129 184 182 237 48 126 160 168 167 176 193 198 172 169 171 167 159 165 167 133 135 137 124 112 103 96 77 81 78 68 57 37 24 8 25 54 56 45 53 69 72 68 79 77 72 71 75 74 72 70 70 66 61 59 54 52 50 48 40 46 38 40 46 56 62 61 65 60 56 55 45 47 48 54 53 45 42 35 42 46 38 32 32 20 17 8 359
249 172 218 229 225 230 215 38 241 190 164 177 229 244 250 209 163 171 179 186 185 210 185 174 170 167 168 163 158 149 157 155 142 126 111 90 93 86 89 86 69 54 27 37 44 55 76 64 62 68 74 70 74 83 84 86 80 78 76 72 67 65 60 57 54 51 50 45 41 41 36 35 34 41 44 48 58 53 49 46 40 36 37 39 40 35 28 18 25 44 48 48 44 27 18 10 352
222 153 208 263 251 224 229 179 181 170 231 248 197 219 248 213 182 182 189 196 186 199 196 174 167 171 171 160 167 170 154 146 128 120 123 121 104 98 91 92 82 62 50 53 60 82 95 102 93 86 93 97 90 87 90 87 84 79 75 72 68 65 60 57 52 54 49 47 47 45 43 41 36 39 43 45 54 51 52 51 51 44 45 47 48 43 31 25 23 21 48 40 37 37 21 7 348
287 317 287 332 332 314 284 44 157 190 180 226 233 236 240 233 184 185 193 197 199 202 197 172 171 167 167 173 166 164 154 121 112 108 108 101 96 102 104 93 86 73 88 64 48 95 104 99 97 95 84 80 95 95 81 84 83 80 82 74 67 62 63 60 52 53 48 51 45 46 45 45 39 40 41 46 54 52 51 47 53 48 47 51 50 45 35 31 26 20 39 56 38 24 25 13 4
288 320 283 278 283 269 290 149 156 205 282 241 248 258 264 264 211 193 189 190 208 207 205 189 175 173 172 172 168 159 149 134 129 123 115 119 119 105 102 109 101 97 93 93 64 70 79 89 82 77 92 109 100 95 87 83 88 90 79 74 79 68 68 67 61 51 51 49 46 47 46 45 43 43 40 45 49 51 51 48 49 45 45 49 50 48 42 38 34 36 20 53 55 37 25 14 5
264 300 305 288 259 267 257 211 185 80 170 270 267 284 268 266 265 182 176 174 204 205 206 195 188 180 174 170 162 157 119 115 132 132 140 124 117 119 105 106 129 100 101 108 60 72 78 69 72 73 61 59 59 59 67 66 59 71 96 80 85 72 66 65 65 53 54 52 49 48 47 45 46 46 41 43 49 50 50 47 46 45 42 47 53 50 44 39 34 32 26 20 34 60 45 22 9
233 224 250 271 256 266 267 95 141 126 94 271 260 257 269 265 257 184 178 188 205 204 199 196 185 181 174 171 158 146 132 148 150 145 143 132 134 131 119 107 93 105 108 103 102 93 79 71 66 66 58 60 56 64 72 82 73 66 85 92 92 91 72 77 79 73 63 61 53 49 47 47 48 49 46 46 49 46 48 49 42 40 43 42 47 43 39 40 33 30 29 34 10 27 54 28 28
261 235 230 238 267 292 291 134 117 214 199 281 328 306 276 269 256 250 199 198 205 210 209 191 183 179 175 175 163 158 153 152 161 152 149 149 148 134 133 126 123 120 119 114 96 91 84 81 83 78 70 69 74 72 88 89 93 93 86 96 88 88 98 81 75 67 62 59 54 48 46 47 46 49 45 47 50 47 47 49 45 42 40 40 50 52 42 39 30 29 26 29 31 38 23 16 27
210 220 234 247 232 233 216 228 196 168 243 234 285 283 275 252 253 239 227 171 120 73 81 63 24 134 144 138 147 163 164 159 157 156 151 154 155 152 147 140 136 126 114 112 113 107 109 101 94 93 94 95 93 98 99 105 104 99 100 97 98 95 74 74 74 63 60 62 65 50 45 45 48 50 46 47 50 51 48 46 49 46 46 39 42 52 50 41 35 30 29 32 33 43 31 21 10
248 218 210 230 234 251 265 291 64 346 293 205 169 323 268 229 224 236 151 106 181 180 171 185 164 145 142 157 161 158 160 161 160 162 158 156 154 143 134 142 144 128 120 117 114 115 113 108 105 106 103 101 111 118 120 117 112 118 120 115 103 95 84 67 74 86 73 64 67 65 55 48 48 50 46 47 48 49 48 47 49 51 50 45 42 48 46 41 32 30 21 34 30 23 54 37 27
231 275 211 212 224 266 309 307 2 288 249 332 34 194 277 330 305 311 166 193 210 160 202 198 180 184 178 170 163 168 161 157 149 148 154 155 147 144 148 150 147 134 130 146 112 110 108 110 112 112 118 123 129 127 133 131 126 117 106 99 100 110 112 90 92 85 90 89 82 68 64 53 49 53 47 48 49 48 51 48 50 53 54 54 48 51 47 41 35 32 23 32 35 31 33 51 37
243 261 351 154 211 229 252 261 213 248 334 229 164 164 273 284 251 250 178 203 220 215 212 208 200 192 189 180 174 172 165 159 155 158 159 151 151 157 159 148 140 138 141 141 129 117 114 116 110 109 105 101 92 104 96 95 97 100 99 101 103 106 103 114 105 99 95 96 88 80 73 62 53 51 54 49 48 49 50 50 50 51 54 50 54 55 54 45 43 35 33 29 31 41 40 48 34
199 272 80 65 83 288 346 236 267 251 4 268 171 141 302 244 261 198 158 212 224 230 214 211 207 195 188 185 179 170 163 161 157 159 163 158 158 159 151 140 127 129 139 139 133 123 116 113 113 107 102 95 87 90 100 97 102 106 110 118 109 99 107 110 112 104 102 99 95 91 83 75 63 53 54 56 49 50 51 53 50 52 52 48 49 52 51 48 49 46 37 31 29 26 37 40 47
209 135 61 80 82 55 241 318 265 316 262 247 170 175 220 274 221 205 191 217 234 230 214 211 200 191 183 181 174 164 159 158 156 159 158 156 156 147 134 122 125 129 130 128 124 122 120 118 115 111 104 102 104 102 105 108 110 115 121 124 122 122 124 115 113 113 106 102 94 89 86 82 75 63 53 51 55 51 53 52 53 51 52 49 48 44 42 44 42 41 43 44 34 35 19 38 43
142 129 92 63 76 150 31 192 59 349 244 244 182 194 177 283 192 191 169 221 221 235 210 196 182 178 173 175 167 166 163 162 162 159 155 148 137 131 132 136 130 125 135 137 132 130 129 125 123 115 118 112 113 115 113 115 114 123 128 130 130 132 131 128 123 114 109 100 100 94 91 91 84 74 57 45 50 48 49 54 58 54 49 50 49 43 36 36 42 45 39 38 39 42 24 34 32
134 132 124 102 325 46 96 310 169 200 264 191 186 195 192 225 278 224 202 185 201 218 198 165 170 175 171 170 166 165 163 162 158 155 154 144 132 135 139 137 141 145 141 141 145 138 133 133 127 121 119 120 118 117 114 116 123 126 125 129 130 131 132 132 129 126 128 120 118 112 104 91 81 74 62 56 46 43 49 50 51 56 52 47 46 45 39 31 36 49 37 43 43 36 26 40 38
163 114 113 123 226 66 289 141 220 206 244 304 300 183 225 235 233 295 263 122 313 354 160 169 166 167 165 164 163 164 160 158 160 159 156 156 158 157 152 148 146 157 156 156 154 147 138 135 134 128 128 127 122 120 121 122 124 127 130 131 131 127 122 122 123 122 132 127 121 113 104 97 86 76 64 64 49 49 53 54 52 52 49 45 46 45 39 33 28 55 47 39 46 38 22 31 52
170 160 161 130 197 216 251 207 220 265 261 280 25 107 243 322 285 213 249 234 50 13 96 154 160 166 169 165 161 160 164 166 165 163 163 164 164 163 155 153 156 157 159 159 158 151 147 142 140 132 134 129 127 124 126 122 122 126 128 126 123 122 120 121 121 120 116 110 110 106 105 104 100 98 86 75 71 65 56 60 63 60 58 56 50 40 38 40 27 45 57 43 45 37 18 22 46
199 178 167 184 172 168 230 187 217 226 225 332 279 105 235 117 240 301 315 70 52 4 342 146 144 150 149 147 148 151 161 171 169 169 170 168 166 164 157 157 159 160 160 161 159 157 149 145 143 139 134 135 135 135 127 123 124 123 122 119 117 117 117 112 109 110 112 110 108 107 105 101 104 105 100 92 76 81 83 75 67 64 61 60 59 45 34 36 22 33 61 53 31 61 5 15 17
207 189 201 233 218 152 233 164 290 330 6 290 205 205 205 183 85 151 167 58 48 5 40 120 131 133 138 148 161 167 170 171 171 168 164 165 163 160 154 157 161 160 162 161 162 158 153 151 145 144 141 143 140 134 132 131 131 126 122 119 116 113 111 109 105 103 103 105 107 105 104 104 108 110 109 104 93 90 102 108 94 78 69 61 61 62 48 40 16 43 54 39 46 25 13 359 27
205 138 213 206 36 206 284 331 60 98 24 250 149 284 288 304 249 157 126 125 114 96 189 132 144 148 150 165 167 169 172 171 171 171 167 161 160 164 159 157 159 159 162 167 167 164 159 153 150 145 144 140 141 140 137 135 130 121 116 114 116 115 118 120 121 116 111 103 101 101 107 114 110 107 116 114 108 91 81 87 93 84 69 70 65 62 51 33 24 48 64 50 58 11 10 337 12
97 196 228 83 69 80 137 233 350 180 231 266 151 226 245 143 271 144 156 160 188 208 198 185 158 160 169 175 176 174 174 174 166 160 162 162 162 162 158 161 162 163 162 164 165 164 157 156 154 148 147 147 147 141 138 138 133 125 122 117 111 115 118 117 118 117 110 105 98 102 102 102 116 130 130 133 125 118 95 94 95 94 84 72 74 62 46 30 28 27 31 54 77 39 7 353 357
149 181 315 136 253 263 234 81 258 237 247 278 222 213 233 191 223 140 201 199 208 203 198 186 176 183 187 176 174 172 162 161 168 167 167 168 170 170 167 164 160 160 163 163 161 156 153 153 153 152 151 151 145 140 135 129 128 127 124 123 122 118 117 117 117 111 109 111 117 114 114 126 128 141 143 132 125 120 116 102 89 77 79 79 60 66 55 32 20 45 26 51 34 33 13 346 329
78 350 326 297 93 182 146 198 245 130 264 332 265 153 259 176 218 173 200 205 204 185 184 204 196 188 182 179 176 176 175 175 174 172 172 173 171 170 169 167 166 167 166 165 160 154 157 156 152 150 141 137 135 137 139 135 132 127 124 117 115 119 122 122 122 119 115 117 120 123 131 138 146 135 139 121 113 110 100 91 90 83 70 67 64 44 55 32 22 55 43 49 15 19 7 348 338
222 134 249 225 155 292 107 309 200 182 226 235 281 277 249 207 179 179 194 198 198 181 192 201 197 188 186 183 178 180 180 176 178 174 173 173 171 168 167 165 160 155 157 157 161 163 160 154 155 154 148 146 144 145 139 138 130 130 129 130 130 128 125 123 117 114 116 120 123 126 137 143 127 142 135 120 115 115 107 108 92 89 85 76 70 57 24 42 38 55 30 82 15 10 8 328 0
187 183 199 188 164 173 194 252 142 230 201 240 231 262 255 297 351 188 185 196 189 190 191 195 192 184 184 183 184 181 179 181 177 177 173 170 168 166 158 152 154 158 164 164 165 162 163 162 160 150 147 151 149 148 145 138 133 135 135 132 128 128 128 124 120 119 120 123 130 133 140 126 129 140 120 123 119 112 108 104 111 91 83 85 71 73 56 55 58 40 17 55 86 16 355 336 358